Content
SEND FEEDBACK

Daily
Averages
Monthly
Summary
Philippines

QUEZON CITY, PHILIPPINES


Home > Asia > Philippines
Elevation: 46 meters     Latitude: 14 39N     Longitude: 121 03E

WEATHER
 
SELECT A DAY
Number of Records: 172,756;   Date Range: 7/1/96 - 9/18/14
 
SHARE

PRINT THIS DATA

[ ← Previous Day ]
WEATHER ALMANAC - 18 JANUARY, 2013
[ Next Day → ]
[ °F ]   °C
Weather ElementAverageHighLow
Temperature25.8 °C29 °C (2:00 pm)24 °C (6:00 am)
Dewpoint16.3 °C20 °C (10:00 pm)-47.8 °C (8:00 am)
Humidity60.7 %74 % (10:00 pm)4 % (8:00 am)
Barometer1015.2 hPa1017.3 hPa (8:00 am)1006.4 hPa (11:00 pm)
Wind Speed12.7 km/h22.2 km/h (2:00 pm)
Weather ElementAverage
Visibility9.7 km
Wind DirectionE (85 °)

Weather ElementTotal
Precipitation---
Cooling Degree Days8.2 (Base 18.3)
Growing Degree Days16.5 (Base 10)
Averaged from 30 records on 18 January, 2013
WEATHER CONDITIONS BREAKOUT
WIND DIRECTION BREAKOUT
WEATHER BY HOUR - 18 JANUARY, 2013
[ °F ]   °C
Local TimeTemperatureDewpointHumidityBarometerVisibilityWind DirectionWind SpeedGust SpeedPrecipitationEventsConditions
1:00 AM25 °C19 °C69 %1015.2 hPa10 kmENE (70°)5.6 km/hMostly Cloudy
2:00 AM24.4 °C17.8 °C59 %1015.2 hPa9.7 kmEast (80°)10.8 km/hHaze
2:00 AM25 °C18 °C65 %1015.2 hPa10 kmEast (80°)11.1 km/hMostly Cloudy
3:00 AM25 °C18 °C65 %1014.2 hPa10 kmENE (70°)11.1 km/hMostly Cloudy
4:00 AM25 °C18 °C65 %1015.2 hPa10 kmESE (120°)7.4 km/hMostly Cloudy
5:00 AM24.4 °C18.3 °C60 %1015.9 hPa9.7 kmNE (50°)7.2 km/hHaze
5:00 AM25 °C18 °C65 %1015.2 hPa10 kmNE (50°)7.4 km/hMostly Cloudy
6:00 AM24 °C19 °C73 %1016.3 hPa10 kmSouth (190°)9.3 km/hMostly Cloudy
7:00 AM24 °C19 °C73 %1016.3 hPa9 kmNNE (30°)11.1 km/hMostly Cloudy
8:00 AM25 °C-47.8 °C4 %1017.3 hPa9.7 kmNorth (10°)3.5 km/hHaze
8:00 AM25 °C18 °C65 %1017.3 hPa9 kmEast (100°)5.6 km/hMostly Cloudy
9:00 AM26 °C18 °C61 %1017.3 hPa8 kmEast (90°)13 km/hOvercast
10:00 AM26 °C18 °C61 %1017.3 hPa9 kmNNE (20°)9.3 km/hMostly Cloudy
11:00 AM28 °C18 °C54 %1016.3 hPa9 kmEast (90°)7.4 km/hMostly Cloudy
12:00 PM27 °C18 °C58 %1015.2 hPa10 kmVariable11.1 km/hMostly Cloudy
1:00 PM27 °C18 °C58 %1014.2 hPa8 kmVariable11.1 km/hMostly Cloudy
2:00 PM28.9 °C17.8 °C41 %1013.9 hPa9.7 kmEast (90°)21.6 km/hHaze
2:00 PM29 °C18 °C51 %1013.2 hPa10 kmEast (90°)22.2 km/hMostly Cloudy
3:00 PM29 °C18 °C51 %1013.2 hPa9 kmEast (90°)20.4 km/hMostly Cloudy
4:00 PM28 °C18 °C54 %1013.2 hPa10 kmEast (100°)22.2 km/hScattered Clouds
5:00 PM26.7 °C18.9 °C54 %1013.9 hPa9.7 kmESE (110°)18 km/hHaze
5:00 PM26 °C19 °C65 %1014.2 hPa10 kmESE (110°)18.5 km/hPartly Cloudy
6:00 PM25 °C19 °C69 %1015.2 hPa10 kmESE (110°)14.8 km/hScattered Clouds
7:00 PM25 °C19 °C69 %1015.2 hPa10 kmESE (120°)14.8 km/hScattered Clouds
8:00 PM25.6 °C18.9 °C58 %1016.3 hPa9.7 kmESE (120°)14.3 km/hHaze
8:00 PM25 °C19 °C69 %1016.3 hPa10 kmESE (120°)14.8 km/hMostly Cloudy
9:00 PM25 °C19 °C69 %1016.3 hPa10 kmESE (110°)14.8 km/hMostly Cloudy
10:00 PM25 °C20 °C74 %1016.3 hPa10 kmESE (110°)14.8 km/hMostly Cloudy
11:00 PM24.4 °C19.4 °C68 %1006.4 hPa9.7 kmESE (110°)14.3 km/hHaze
11:00 PM25 °C20 °C74 %1016.3 hPa10 kmESE (110°)14.8 km/hMostly Cloudy
Hourly data recorded from RPLL, located 0 kilometers away from Quezon City, Philippines







STORIES FROM OUR PARTNERS